Location: Unspecified
(41.5000°N, 0.0000°E)
Time: 07:12:08
(UTC+00:00)

deb Explorer IX - Pass Details

Date: 05 October 2020
Orbit: 537 x 1106 km, 38.8° (Epoch: 19 October)

Event Time Altitude Azimuth Distance (km) Brightness Sun altitude
Rises 19:27:18 0° 275° (W) 3,025 ? -21.8°
Reaches altitude 10° 19:30:08 10° 262° (W) 2,016 ? -22.4°
Maximum altitude 19:33:51 25° 208° (SSW) 1,210 ? -23.0°
Enters shadow 19:34:38 23° 191° (S) 1,238 ? -23.2°
